This demonstration page uses our WeatherBlox Daily Observations layout. Learn more.

Left ArrowRight Arrow

Hourly Observations for April 24, 2018

Temp ( °F °C ) Dew Point ( °F °C ) Humidity (%) Winds ( mph kmh ) Pressure ( in mb ) Visibility ( mi km ) Precip ( " mm )
12:51 am 00:51 Clear 48 8.9 39 3.9 71 71 Calm 30.41 1030 10 16 0.00 0.00
1:51 am 01:51 Clear 47 8.3 39 3.9 74 74 Calm 30.40 1030 10 16 0.00 0.00
2:51 am 02:51 Clear 45 7.2 39 3.9 80 80 Calm 30.39 1029 10 16 0.00 0.00
3:51 am 03:51 Clear with Fog 45 7.2 39 3.9 80 80 Calm 30.39 1029 10 16 0.00 0.00
4:51 am 04:51 Clear with Fog 44 6.7 37 2.8 76 76 Calm 30.39 1029 10 16 0.00 0.00
5:51 am 05:51 Clear 42 5.6 37 2.8 82 82 Calm 30.40 1029 10 16 0.00 0.00
6:51 am 06:51 Sunny 43 6.1 37 2.8 80 80 NNW 3 6 30.40 1029 10 16 0.00 0.00
7:51 am 07:51 Sunny 48 8.9 40 4.4 74 74 Calm 30.41 1030 10 16 0.00 0.00
8:51 am 08:51 Sunny 53 11.7 42 5.6 66 66 Calm 30.40 1029 10 16 0.00 0.00
9:51 am 09:51 Sunny 57 13.9 39 3.9 51 51 SE 5 7 30.39 1029 10 16 0.00 0.00
10:51 am 10:51 Mostly Sunny 60 15.6 33 0.6 36 36 SE 9 15 30.37 1029 10 16 0.00 0.00
11:51 am 11:51 Partly Cloudy 63 17.2 39 3.9 41 41 SSE 13 20 30.36 1028 10 16 0.00 0.00
12:51 pm 12:51 Mostly Sunny 64 17.8 39 3.9 40 40 SE 15 24 30.33 1027 10 16 0.00 0.00
1:51 pm 13:51 Sunny 65 18.3 39 3.9 39 39 SSE 16 26 30.31 1026 10 16 0.00 0.00
2:51 pm 14:51 Sunny 65 18.3 40 4.4 40 40 S 15 24 30.29 1026 10 16 0.00 0.00
3:51 pm 15:51 Sunny 63 17.2 40 4.4 43 43 SE 14 22 30.26 1025 10 16 0.00 0.00
4:51 pm 16:51 Sunny 63 17.2 41 5 45 45 SE 15 24 30.24 1024 10 16 0.00 0.00
5:51 pm 17:51 Mostly Cloudy 61 16.1 41 5 48 48 SE 12 19 30.23 1024 10 16 0.00 0.00
6:51 pm 18:51 Mostly Cloudy 60 15.6 41 5 50 50 SSE 12 19 30.21 1023 10 16 0.00 0.03
7:51 pm 19:51 Cloudy 59 15 40 4.4 49 49 SE 7 11 30.21 1023 10 16 0.00 0.00
8:51 pm 20:51 Cloudy 58 14.4 39 3.9 50 50 ESE 12 19 30.21 1023 10 16 0.00 0.00
9:22 pm 21:22 Cloudy with Drizzle 55 13 43 6 63 63 ESE 12 19 30.21 1023 8 13 0.00 0.00
9:51 pm 21:51 Cloudy 55 12.8 45 7.2 69 69 ESE 9 15 30.20 1023 10 16 0.00 0.03
10:51 pm 22:51 Cloudy with Light Rain 54 12.2 48 8.9 80 80 NE 5 7 30.18 1022 5 8 0.01 0.25
11:51 pm 23:51 Cloudy with Light Rain 53 11.7 49 9.4 86 86 N 9 15 30.15 1021 5 8 0.02 0.51

Powered by Vaisala Xweather